User: anonymous   Login
Location: Hancock Field Station
(44.9202°N, 120.4259°W)
Time: 14:21:38
(UTC-07:00)
Language:

Cosmos 1707 - Orbit

View from above orbital plane
View from above orbital plane
View from above satellite
View from above satellite

Ground track
Ground track

The orbit data is extracted from the following two-line orbital elements,

1 16326U 85113A   17228.73093373  .00000937  00000-0  50741-4 0  9991
2 16326  82.5136 148.8816 0012533  92.0169 268.2498 15.13345000726503
Epoch (UTC): 16 August 2017 17:32:32
Eccentricity: 0.0012533
inclination: 82.5136°
perigee height: 517 km
apogee height: 534 km
right ascension of ascending node: 148.8816°
argument of perigee: 92.0169°
revolutions per day: 15.13345000
mean anomaly at epoch: 268.2498°
orbit number at epoch: 72650

The dashed part of the orbit path shows where the satellite is in the earth's shadow,  

DLR